Elizabeth City, NC

6:55 AM EST on December 06, 2016 (GMT -0500)
Elizabeth City Cgas-Regional

Weather History for KECG - December, 2012

Change the Weather History Date:

Friday, December 14, 2012

  Actual Average Record
Temperature  
Mean Temperature 53 °F 45 °F  
Max Temperature 71 °F 54 °F 76 °F (2015)
Min Temperature 34 °F 35 °F 12 °F (1962)
Degree Days  
Heating Degree Days 12 20  
Month to date heating degree days 125 260  
Since 1 July heating degree days 634 775  
Cooling Degree Days 0 0  
Month to date cooling degree days 3 0  
Year to date cooling degree days 2236 1588  
Moisture  
Dew Point 38 °F    
Average Humidity 64    
Maximum Humidity 100    
Minimum Humidity 28    
Precipitation  
Precipitation 0.00 in 0.09 in 1.84 in (2003)
Month to date precipitation 0.39 1.17  
Year to date precipitation 44.31 45.19  
Snow  
Snow 0.00 in - T in (1944)
Month to date snowfall 0.0  
Since 1 July snowfall 0.0  
Snow Depth 0.00 in    
Sea Level Pressure  
Sea Level Pressure 30.30 in    
Wind  
Wind Speed 4 mph (NNW)    
Max Wind Speed 13 mph    
Max Gust Speed 35 mph    
Visibility 8 miles    
Events Fog    
T = Trace of Precipitation, MM = Missing Value Source: NWS Daily Summary

Daily Weather History Graph

Daily Weather History Graph

Search for Another Location

Airport or City:

Trip Planner

Search our weather history database for the weather conditions in past years. The results will help you decide how hot, cold, wet, or windy it might be!

Date:

Astronomy

Dec. 14, 2012 Rise Set
Actual Time 7:08 AM EST 4:50 PM EST
Civil Twilight 6:39 AM EST 5:19 PM EST
Nautical Twilight 6:07 AM EST 5:51 PM EST
Astronomical Twilight 5:36 AM EST 6:23 PM EST
Moon 8:12 AM EST (12/14) 6:39 PM EST (12/14)
Length of Visible Light 10h 39m
Length of Day
9h 42m
Waxing Crescent, 3% of the Moon is Illuminated
Dec 14
Waxing Crescent
Dec 20
First Quarter
Dec 28
Full
Jan 4
Last Quarter
Jan 11
New

Hourly Weather History & Observations

Time (EST) Temp. Windchill Dew Point Humidity Pressure Visibility Wind Dir Wind Speed Gust Speed Precip Events Conditions
12:54 AM 42.1 °F 37.7 °F 37.9 °F 85% 30.32 in 10.0 mi NW 6.9 mph - N/A   Clear
1:54 AM 43.0 °F 37.7 °F 39.9 °F 89% 30.32 in 10.0 mi NNW 9.2 mph - N/A   Clear
2:54 AM 43.0 °F 38.2 °F 39.9 °F 89% 30.32 in 10.0 mi NNW 8.1 mph - N/A   Clear
3:54 AM 43.0 °F 38.8 °F 39.9 °F 89% 30.31 in 10.0 mi NNW 6.9 mph - N/A   Clear
4:54 AM 42.1 °F 37.1 °F 41.0 °F 96% 30.30 in 10.0 mi NNW 8.1 mph - N/A   Clear
6:54 AM 42.1 °F 37.1 °F 39.9 °F 92% 30.35 in 10.0 mi NNW 8.1 mph - N/A   Clear
7:54 AM 43.0 °F 39.5 °F 39.9 °F 89% 30.35 in 10.0 mi NNW 5.8 mph - N/A   Clear
8:54 AM 48.0 °F - 39.9 °F 74% 30.35 in 10.0 mi NNE 4.6 mph - N/A   Clear
9:54 AM 50.0 °F - 39.9 °F 68% 30.36 in 10.0 mi North 5.8 mph - N/A   Clear
10:54 AM 53.1 °F - 41.0 °F 64% 30.33 in 10.0 mi Calm Calm - N/A   Clear
11:54 AM 55.9 °F - 37.9 °F 51% 30.32 in 10.0 mi North 4.6 mph - N/A   Clear
12:54 PM 57.0 °F - 33.1 °F 40% 30.30 in 10.0 mi Variable 4.6 mph - N/A   Clear
1:54 PM 57.9 °F - 24.1 °F 27% 30.28 in 10.0 mi West 3.5 mph - N/A   Clear
2:54 PM 57.9 °F - 28.9 °F 33% 30.26 in 10.0 mi West 3.5 mph - N/A   Clear
3:54 PM 57.0 °F - 30.9 °F 37% 30.26 in 10.0 mi West 3.5 mph - N/A   Clear
5:54 PM 45.0 °F 43.5 °F 35.1 °F 68% 30.25 in 10.0 mi ENE 3.5 mph - N/A   Clear
6:54 PM 46.9 °F - 39.9 °F 77% 30.26 in 10.0 mi East 3.5 mph - N/A   Clear
7:54 PM 42.1 °F - 42.1 °F 100% 30.27 in 10.0 mi Calm Calm - N/A   Clear
8:54 PM 42.1 °F - 42.8 °F 100% 30.26 in 9.0 mi Calm Calm - N/A   Clear
9:54 PM 42.1 °F - 41.0 °F 96% 30.28 in 8.0 mi Calm Calm - N/A   Clear
10:12 PM 35.6 °F - - N/A% 30.27 in 1.2 mi Calm Calm - N/A   Clear
10:20 PM 35.6 °F - - N/A% 30.28 in 0.5 mi Calm Calm - N/A Fog Fog
10:28 PM 37.4 °F - - N/A% 30.28 in 0.2 mi Calm Calm - N/A Fog Fog
10:54 PM 36.0 °F - - N/A% 30.28 in 0.2 mi Calm Calm - N/A Fog Fog
11:47 PM 37.4 °F - - N/A% 30.27 in 0.5 mi Calm Calm - N/A Fog Fog
11:54 PM 37.9 °F - - N/A% 30.28 in 0.2 mi Calm Calm - N/A Fog Fog